This is the latest recevied weather packets stored in our database for station/object KD2VWU. If no packets are shown the sender has not sent any weather packets the latest 10 day(s).
| Time | Temp. | Humidity | Pressure | Rain* | Wind** | Luminosity | Snow |
|---|---|---|---|---|---|---|---|
| 1777502626 | 13.33° C | 58% | 1007.6 hPa | 0 mm | - | - | - |
| 1777502322 | 13.33° C | 60% | 1007.6 hPa | 0 mm | - | - | - |
| 1777502019 | 13.89° C | 57% | 1007.8 hPa | 0 mm | - | - | - |
| 1777501716 | 13.89° C | 57% | 1007.8 hPa | 0 mm | - | - | - |
| 1777501413 | 14.44° C | 58% | 1007.6 hPa | 0 mm | - | - | - |
| 1777501111 | 14.44° C | 62% | 1007.6 hPa | 0 mm | - | - | - |
| 1777500809 | 14.44° C | 62% | 1008.1 hPa | 0 mm | - | - | - |
| 1777500506 | 14.44° C | 62% | 1008 hPa | 0 mm | - | - | - |
| 1777500202 | 14.44° C | 62% | 1008.2 hPa | 0 mm | - | - | - |
| 1777499899 | 14.44° C | 63% | 1008.4 hPa | 0 mm | - | - | - |
| 1777499595 | 14.44° C | 65% | 1008.5 hPa | 0 mm | - | - | - |
| 1777499292 | 14.44° C | 67% | 1008.6 hPa | 0 mm | - | - | - |
| 1777498990 | 14.44° C | 65% | 1008.5 hPa | 0 mm | - | - | - |
| 1777498686 | 14.44° C | 66% | 1008.3 hPa | 0 mm | - | - | - |
| 1777498382 | 14.44° C | 68% | 1008.2 hPa | 0 mm | - | - | - |
| 1777498080 | 14.44° C | 67% | 1008.3 hPa | 0 mm | - | - | - |
| 1777497776 | 15° C | 66% | 1008.8 hPa | 0 mm | - | - | - |
| 1777497473 | 15° C | 67% | 1008.8 hPa | 0 mm | - | - | - |
| 1777497169 | 15° C | 67% | 1008.7 hPa | 0 mm | - | - | - |
| 1777496866 | 15° C | 63% | 1008.7 hPa | 0 mm | - | - | - |
| 1777496563 | 15.56° C | 65% | 1008.8 hPa | 0 mm | - | - | - |
| 1777496259 | 15.56° C | 64% | 1008.6 hPa | 0 mm | - | - | - |
| 1777495955 | 15.56° C | 65% | 1008.7 hPa | 0 mm | - | - | - |
| 1777495651 | 16.11° C | 64% | 1008.7 hPa | 0 mm | - | - | - |
| 1777495348 | 15.56° C | 63% | 1008.9 hPa | 0 mm | - | - | - |
* Rain latest hour (hover to see other rain measurements)
** Current wind speed in m/s (hover to see current wind gust speed)